Location: Beneden-Haastrecht
(52.0012°N, 4.7557°E)
Time: 03:38:44
(UTC+00:00)

GEOS 3 Rocket - Pass Details

Date: 24 October 2020
Orbit: 770 x 850 km, 115.0° (Epoch: 24 November)

Event Time Altitude Azimuth Distance (km) Brightness Sun altitude
Exits shadow 18:36:45 13° 159° (SSE) 2,248 5.6 -20.5°
Maximum altitude 18:41:26 51° 234° (SW) 1,049 4.4 -21.2°
Drops below altitude 10° 18:46:41 10° 310° (NW) 2,478 6.9 -22.0°
Sets 18:49:07 0° 315° (NW) 3,421 7.7 -22.4°
